Home   Weather   Almería   Past weeks

Flag for Spain Past Weather in Almería, Spain — Yesterday and Last 2 Weeks

Now
60 °F

Cool.


Feels Like: 59 °F
Forecast: 55 / 68 °F
Wind: 7 mph from Northeast

Location: Almeria / Aeropuerto

Current Time: Apr 24, 2017 at 1:56:08 am

Latest Report: Apr 24, 2017 at 1:00 am


Visibility: N/A

Pressure: 30.06 "Hg

Humidity: 69%

Dew Point: 50 °F

Location of AlmeríaLocation

Past Weather in Almería — Graph

°F

Almería Temperature Yesterday

Maximum temperature yesterday: 75 °F (at 1:00 pm)
Minimum temperature yesterday: 58 °F (at 2:00 am)
Average temperature yesterday: 65 °F

High & Low Weather Summary for the Past Weeks

 TemperatureHumidityPressure
High82 °F (Apr 18, 5:00 pm)98% (Apr 15, 8:00 am)30.26 "Hg (Apr 15, 8:00 am)
Low51 °F (Apr 11, 7:00 am)23% (Apr 18, 7:00 pm)29.84 "Hg (Apr 18, 6:00 pm)
Average64 °F64%30.10 "Hg
* Reported Apr 9 12:00 am — Apr 24 12:00 am, Almería, Weather by CustomWeather, © 2017

Note: Actual official high and low records may vary slightly from our data, if they occured in-between our weather recording intervals... More about our weather records

Advertising

Almería Weather History for the Previous 24 Hours

Scroll right to see more
 ConditionsComfort  
Time TempWeatherWind HumidityBarometerVisibility
12:00 am
Mon, Apr 24
61 °FCool.8 mph63%30.06 "HgN/A
11:00 pm
Sun, Apr 23
61 °FCool.7 mph65%30.05 "HgN/A
10:00 pm63 °FMild.3 mph62%30.04 "HgN/A
9:00 pm65 °FMild.3 mph56%30.02 "HgN/A
8:00 pm68 °FScattered clouds.3 mph56%30.01 "Hg28 mi
7:00 pm70 °FMild.7 mph45%30.00 "HgN/A
6:00 pm70 °FMild.6 mph46%30.00 "HgN/A
5:00 pm71 °FPassing clouds.8 mph52%30.01 "Hg25 mi
4:00 pm71 °FMild.10 mph49%30.02 "HgN/A
3:00 pm72 °FMild.10 mph51%30.04 "HgN/A
2:00 pm73 °FPassing clouds.12 mph39%30.05 "Hg25 mi
1:00 pm75 °FMild.12 mph37%30.06 "HgN/A
12:00 pm74 °FMild.13 mph25%30.06 "HgN/A
11:00 am71 °FPartly sunny.3 mph34%30.07 "Hg31 mi
10:00 am66 °FMild.6 mph44%30.07 "HgN/A
9:00 am62 °FRefreshingly cool.8 mph51%30.07 "HgN/A
8:00 am60 °FRefreshingly cool.10 mph53%30.06 "HgN/A
7:00 am59 °FRefreshingly cool.12 mph54%30.04 "HgN/A
6:00 am59 °FRefreshingly cool.10 mph56%30.04 "HgN/A
5:00 am59 °FPassing clouds.9 mph59%30.06 "Hg25 mi
4:00 am60 °FCool.8 mph60%30.07 "HgN/A
3:00 am60 °FCool.6 mph67%30.08 "HgN/A
2:00 am58 °FCool.3 mph74%30.10 "HgN/A
1:00 am60 °FCool.5 mph70%30.10 "HgN/A
Weather by CustomWeather, © 2017

See weather overviewHow to use our weather pages